• Join FlightAware (Why Join?)
  • Login
  • US Flag GB Flag 
15:21 EDT


 

Airport Tracker/Info


-or-


 

Live Flight TrackerFlight Track Log ✈ SWA896 ✈ 14-Apr-2013 ✈ KBUF - KLAS

Flight Track Log - Related Links

Times and Time Zones

All times are in EDT time to prevent confusion due to time zone crossing. See the SWA896 flight status page for this flight to view local times or setup timezone preferences in your user account.

Time Position Orientation Groundspeed Altitude Reporting Facility
EDT Latitude Longitude Course Direction KTS MPH feet Rate Location/Type
08:21 42.9167 -78.7500 251° West 161 185 2,400  Level Buffalo TRACON
08:24 42.8794 -78.8975 251° West 199 229 6,900 2,340 Climbing Cleveland Center
08:25 42.8661 -78.9911 259° West 232 267 10,200 2,700 Climbing Cleveland Center
08:26 42.8528 -79.0908 260° West 248 285 12,300 1,980 Climbing Cleveland Center
08:27 42.8397 -79.2042 261° West 278 320 14,200 2,160 Climbing Cleveland Center
08:28 42.8181 -79.3236 256° West 306 352 16,700 2,160 Climbing Cleveland Center
08:29 42.7858 -79.4403 249° West 326 375 18,600 1,920 Climbing Cleveland Center
08:30 42.7664 -79.5736 259° West 347 399 20,600 1,860 Climbing Cleveland Center
08:31 42.7508 -79.7039 261° West 352 405 22,400 1,680 Climbing Cleveland Center
08:32 42.7350 -79.8425 261° West 363 418 24,000 1,440 Climbing Cleveland Center
08:33 42.7150 -79.9842 259° West 375 432 25,300 1,200 Climbing Cleveland Center
08:34 42.6947 -80.1311 259° West 389 448 26,500 1,380 Climbing Cleveland Center
08:35 42.6786 -80.2781 262° West 394 453 28,100 1,500 Climbing Cleveland Center
08:36 42.6603 -80.4222 260° West 394 453 29,600 900 Climbing Cleveland Center
08:37 42.6436 -80.5661 261° West 389 448 30,000 180 Climbing Cleveland Center
08:38 42.6228 -80.7072 259° West 389 448 30,000 600 Level Cleveland Center
08:39 42.6058 -80.8511 261° West 389 448 31,200 1,080 Climbing Cleveland Center
08:40 42.5886 -80.9950 261° West 389 448 32,200 960 Climbing Cleveland Center
08:41 42.5694 -81.1386 260° West 389 448 33,200 900 Climbing Cleveland Center
08:42 42.5519 -81.2681 260° West 389 448 34,000 360 Climbing Cleveland Center
08:43 42.5344 -81.4117 261° West 389 448 34,000  Level Cleveland Center
08:44 42.5144 -81.5494 259° West 389 448 34,000  Level Cleveland Center
08:45 42.4967 -81.6897 260° West 389 448 34,000  Level Cleveland Center
08:46 42.4764 -81.8275 259° West 389 448 34,000  Level Cleveland Center
08:47 42.4561 -81.9678 259° West 389 448 34,000  Level Cleveland Center
08:48 42.4500 -82.1083 267° West 384 442 34,000  Level Cleveland Center
08:49 42.4397 -82.2458 264° West 384 442 34,000  Level Cleveland Center
08:50 42.4314 -82.3892 266° West 384 442 34,000  Level Cleveland Center
08:51 42.4250 -82.5297 267° West 384 442 34,000  Level Cleveland Center
08:52 42.4161 -82.6728 265° West 384 442 34,000  Level Cleveland Center
08:53 42.4072 -82.8161 265° West 384 442 34,000  Level Cleveland Center
08:54 42.3981 -82.9592 265° West 384 442 34,000  Level Cleveland Center
08:55 42.3889 -83.0994 265° West 384 442 34,000  Level Cleveland Center
08:56 42.3769 -83.2619 264° West 389 448 34,000  Level Cleveland Center
08:57 42.3672 -83.3992 265° West 383 441 34,000  Level Cleveland Center
08:58 42.3575 -83.5419 265° West 383 441 34,000 480 Level Cleveland Center
08:59 42.3494 -83.6850 266° West 383 441 35,000 840 Climbing Cleveland Center
09:00 42.3394 -83.8250 265° West 383 441 35,700 480 Climbing Cleveland Center
09:01 42.3292 -83.9650 264° West 383 441 36,000 120 Climbing Cleveland Center
09:02 42.3186 -84.1075 264° West 383 441 36,000  Level Cleveland Center
09:03 42.3078 -84.2503 264° West 388 447 36,000  Level Cleveland Center
09:04 42.2936 -84.4922 266° West 389 448 36,000  Level Chicago Center
09:05 42.2800 -84.6386 263° West 392 451 36,000  Level Chicago Center
09:06 42.2694 -84.7850 264° West 392 451 36,000  Level Chicago Center
09:07 42.2575 -84.9325 264° West 394 453 36,000  Level Chicago Center
09:08 42.2467 -85.0786 264° West 393 452 36,000  Level Chicago Center
09:10 42.2339 -85.2233 263° West 391 450 36,000  Level Chicago Center
09:11 42.2217 -85.3678 264° West 388 447 36,000  Level Chicago Center
09:12 42.2094 -85.5158 264° West 395 455 36,000  Level Chicago Center
09:13 42.1944 -85.6908 263° West 392 451 36,000  Level Chicago Center
09:14 42.1806 -85.8364 263° West 391 450 36,000  Level Chicago Center
09:15 42.1706 -85.9642 264° West 390 449 36,000  Level Chicago Center
09:16 42.1564 -86.1092 263° West 391 450 36,000  Level Chicago Center
09:17 42.1406 -86.2797 263° West 387 445 36,000  Level Chicago Center
09:18 42.1275 -86.4222 263° West 387 445 36,000  Level Chicago Center
09:19 42.1142 -86.5647 263° West 387 445 36,000  Level Chicago Center
09:20 42.1006 -86.7153 263° West 384 442 36,000  Level Chicago Center
09:21 42.0867 -86.8569 263° West 384 442 36,000  Level Chicago Center
09:22 42.0733 -86.9981 263° West 384 442 36,000  Level Chicago Center
09:23 42.0569 -87.1367 261° West 379 436 36,000  Level Chicago Center
09:24 42.0444 -87.2814 263° West 390 449 36,000  Level Chicago Center
09:25 42.0261 -87.4528 262° West 388 447 36,000  Level Chicago Center
09:26 42.0114 -87.5942 262° West 387 445 36,000  Level Chicago Center
09:27 41.9964 -87.7369 262° West 388 447 36,000  Level Chicago Center
09:28 41.9811 -87.8781 262° West 386 444 36,000  Level Chicago Center
09:29 41.9664 -88.0197 262° West 386 444 36,000  Level Chicago Center
09:30 41.9506 -88.1608 261° West 388 447 36,000  Level Chicago Center
09:31 41.9350 -88.3011 262° West 386 444 36,000  Level Chicago Center
09:32 41.9167 -88.4714 262° West 386 444 36,000  Level Chicago Center
09:33 41.8997 -88.6117 261° West 387 445 36,000  Level Chicago Center
09:34 41.8842 -88.7525 262° West 386 444 36,000  Level Chicago Center
09:35 41.8686 -88.8922 262° West 382 440 36,000  Level Chicago Center
09:36 41.8508 -89.0325 260° West 384 442 36,000  Level Chicago Center
09:37 41.8317 -89.2022 261° West 386 444 36,000  Level Chicago Center
09:38 41.8147 -89.3442 261° West 388 447 36,000  Level Chicago Center
09:39 41.7978 -89.4842 261° West 384 442 36,000  Level Chicago Center
09:40 41.7808 -89.6317 261° West 387 445 36,000  Level Chicago Center
09:41 41.7625 -89.7722 260° West 384 442 36,000  Level Chicago Center
09:42 41.7453 -89.9139 261° West 386 444 36,000  Level Chicago Center
09:43 41.7275 -90.0572 261° West 390 449 36,000  Level Chicago Center
09:44 41.7103 -90.1983 261° West 388 447 36,000  Level Chicago Center
09:45 41.6906 -90.3453 260° West 397 457 36,000  Level Chicago Center
09:46 41.6719 -90.4869 260° West 393 452 36,000  Level Chicago Center
09:47 41.6500 -90.6583 260° West 392 451 36,000  Level Chicago Center
09:48 41.6303 -90.8003 260° West 391 450 36,000  Level Chicago Center
09:49 41.6108 -90.9444 260° West 394 453 36,000  Level Chicago Center
09:51 41.5919 -91.0889 260° West 396 456 36,000  Level Chicago Center
09:52 41.5719 -91.2328 260° West 396 456 36,000  Level Chicago Center
09:53 41.5519 -91.3786 260° West 399 459 36,000  Level Chicago Center
09:54 41.5319 -91.5242 260° West 399 459 36,000  Level Chicago Center
09:55 41.5261 -91.6972 267° West 390 449 36,000  Level Chicago Center
09:56 41.5381 -91.8481 276° West 401 461 36,000  Level Chicago Center
09:57 41.5500 -91.9953 276° West 402 463 36,000  Level Chicago Center
09:58 41.5617 -92.1431 276° West 402 463 36,000  Level Chicago Center
09:59 41.5742 -92.2922 276° West 403 464 36,000  Level Chicago Center
10:00 41.5856 -92.4428 276° West 406 467 36,000  Level Chicago Center
10:01 41.5967 -92.5917 276° West 407 468 36,000  Level Chicago Center
10:02 41.6089 -92.7697 275° West 407 468 36,000  Level Chicago Center
10:03 41.6211 -92.9183 276° West 407 468 36,000  Level Chicago Center
10:04 41.6308 -93.0669 275° West 406 467 36,000  Level Chicago Center
10:05 41.6411 -93.2156 275° West 405 466 36,000  Level Chicago Center
10:06 41.6528 -93.3939 275° West 403 464 36,000  Level Minneapolis Center
10:07 41.6642 -93.5389 276° West 400 460 36,000  Level Minneapolis Center
10:08 41.6769 -93.7125 276° West 396 456 36,000  Level Minneapolis Center
10:09 41.6844 -93.8617 274° West 402 463 36,000  Level Minneapolis Center
10:10 41.6939 -94.0011 275° West 400 460 36,000  Level Minneapolis Center
10:11 41.7042 -94.1792 274° West 398 458 36,000  Level Minneapolis Center
10:12 41.7136 -94.3272 275° West 398 458 36,000  Level Minneapolis Center
10:13 41.7225 -94.4756 275° West 399 459 36,000  Level Minneapolis Center
10:14 41.7314 -94.6258 275° West 403 464 36,000  Level Minneapolis Center
10:15 41.7392 -94.7733 274° West 398 458 36,000  Level Minneapolis Center
10:16 41.7467 -94.9181 274° West 393 452 36,000  Level Minneapolis Center
10:17 41.7561 -95.0622 275° West 390 449 36,000  Level Minneapolis Center
10:18 41.7631 -95.2075 274° West 392 451 36,000  Level Minneapolis Center
10:19 41.7703 -95.3553 274° West 396 456 36,000  Level Minneapolis Center
10:20 41.7775 -95.5022 274° West 397 457 36,000  Level Minneapolis Center
10:21 41.7864 -95.6794 274° West 400 460 36,000  Level Minneapolis Center
10:22 41.7931 -95.8250 274° West 396 456 36,000  Level Minneapolis Center
10:23 41.7994 -95.9731 273° West 400 460 36,000  Level Minneapolis Center
10:25 41.8061 -96.1217 273° West 403 464 36,000  Level Minneapolis Center
10:26 41.8125 -96.2722 273° West 406 467 36,000  Level Minneapolis Center
10:27 41.8194 -96.4242 274° West 409 471 36,000  Level Minneapolis Center
10:28 41.8256 -96.5758 273° West 410 472 36,000  Level Minneapolis Center
10:29 41.8308 -96.7292 273° West 411 473 36,000  Level Minneapolis Center
10:30 41.8369 -96.8814 273° West 412 474 36,000  Level Minneapolis Center
10:31 41.8425 -97.0331 273° West 411 473 36,000  Level Minneapolis Center
10:32 41.8497 -97.2169 273° West 411 473 36,000  Level Minneapolis Center
10:33 41.8553 -97.3708 273° West 413 475 36,000  Level Minneapolis Center
10:34 41.8603 -97.5261 273° West 415 478 36,000  Level Minneapolis Center
10:35 41.8642 -97.6828 272° West 418 481 36,000  Level Minneapolis Center
10:36 41.8686 -97.8381 272° West 418 481 36,000  Level Minneapolis Center
10:37 41.8739 -97.9933 273° West 418 481 36,000  Level Minneapolis Center
10:38 41.8772 -98.1478 272° West 417 480 36,000  Level Minneapolis Center
10:39 41.8814 -98.3014 272° West 415 478 36,000  Level Minneapolis Center
10:40 41.8856 -98.4533 272° West 412 474 36,000  Level Minneapolis Center
10:41 41.8889 -98.6047 272° West 411 473 36,000  Level Minneapolis Center
10:42 41.8925 -98.7867 272° West 409 471 36,000  Level Minneapolis Center
10:43 41.8953 -98.9361 271° West 405 466 36,000  Level Minneapolis Center
10:44 41.8986 -99.0839 272° West 401 461 36,000  Level Minneapolis Center
10:45 41.9003 -99.2314 271° West 398 458 36,000 240 Level Minneapolis Center
10:46 41.9039 -99.3803 272° West 400 460 36,600 480 Climbing Minneapolis Center
10:47 41.9050 -99.5267 271° West 396 456 37,000 180 Climbing Minneapolis Center
10:48 41.9069 -99.6722 271° West 392 451 37,000  Level Minneapolis Center
10:49 41.9097 -99.8197 271° West 395 455 37,000  Level Minneapolis Center
10:50 41.9125 -99.9706 271° West 401 461 37,000  Level Minneapolis Center
10:50 41.9100 -100.0333 267° West 404 465 37,000  Level Denver Center
10:51 41.9122 -100.1769 271° West 403 464 37,000  Level Denver Center
10:52 41.9139 -100.3478 271° West 409 471 37,000  Level Denver Center
10:53 41.9147 -100.4950 270° West 413 475 37,000  Level Denver Center
10:54 41.9153 -100.6414 270° West 411 473 37,000  Level Denver Center
10:55 41.9158 -100.8136 270° West 415 478 37,000  Level Denver Center
10:56 41.9167 -100.9600 270° West 413 475 37,000  Level Denver Center
10:57 41.9158 -101.1300 270° West 410 472 37,000  Level Denver Center
10:58 41.9164 -101.2506 270° West 408 470 37,000  Level Denver Center
10:59 41.9169 -101.4425 270° West 407 468 37,000  Level Denver Center
11:01 41.9164 -101.5878 270° West 408 470 37,000  Level Denver Center
11:02 41.9158 -101.7564 270° West 405 466 37,000  Level Denver Center
11:03 41.9147 -101.9028 269° West 410 472 37,000  Level Denver Center
11:04 41.9133 -102.0494 269° West 412 474 37,000  Level Denver Center
11:05 41.9122 -102.2208 270° West 412 474 37,000  Level Denver Center
11:06 41.9100 -102.3833 269° West 415 478 37,000  Level Denver Center
11:07 41.9078 -102.5308 269° West 413 475 37,000  Level Denver Center
11:08 41.9069 -102.6989 270° West 405 466 37,000  Level Denver Center
11:09 41.9042 -102.8194 268° West 405 466 37,000  Level Denver Center
11:10 41.9025 -102.9881 269° West 404 465 37,000  Level Denver Center
11:11 41.8997 -103.1564 269° West 405 466 37,000  Level Denver Center
11:12 41.8964 -103.3014 268° West 405 466 37,000  Level Denver Center
11:13 41.8919 -103.4689 268° West 403 464 37,000  Level Denver Center
11:14 41.8631 -103.6106 255° West 415 478 37,000  Level Denver Center
11:15 41.8244 -103.7711 252° West 408 470 37,000  Level Denver Center
11:16 41.7911 -103.9083 252° West 404 465 37,000  Level Denver Center
11:17 41.7586 -104.0447 252° West 402 463 37,000  Level Denver Center
11:18 41.7194 -104.2036 252° West 400 460 37,000  Level Denver Center
11:19 41.6867 -104.3392 252° West 400 460 37,000  Level Denver Center
11:20 41.6475 -104.4956 252° West 397 457 37,000  Level Denver Center
11:21 41.6142 -104.6311 252° West 399 459 37,000  Level Denver Center
11:22 41.5783 -104.7658 250° West 401 461 37,000  Level Denver Center
11:23 41.5119 -104.9092 238° Southwest 406 467 37,000  Level Denver Center
11:24 41.4561 -105.0319 239° Southwest 403 464 37,000  Level Denver Center
11:25 41.3894 -105.1733 238° Southwest 404 465 37,000  Level Denver Center
11:26 41.3331 -105.2972 239° Southwest 408 470 37,000  Level Denver Center
11:27 41.2650 -105.4447 238° Southwest 415 478 37,000  Level Denver Center
11:28 41.2050 -105.5717 238° Southwest 422 486 37,000  Level Denver Center
11:29 41.1469 -105.6931 238° Southwest 413 475 37,000  Level Denver Center
11:30 41.0806 -105.8361 238° Southwest 407 468 37,000  Level Denver Center
11:31 41.0231 -105.9561 238° Southwest 404 465 37,000  Level Denver Center
11:32 40.9594 -106.0908 238° Southwest 401 461 37,000  Level Denver Center
11:33 40.8975 -106.2233 238° Southwest 416 479 37,000  Level Denver Center
11:34 40.8286 -106.3644 237° Southwest 412 474 37,000  Level Denver Center
11:35 40.7717 -106.4856 238° Southwest 407 468 37,000  Level Denver Center
11:37 40.7100 -106.6100 237° Southwest 408 470 37,000  Level Denver Center
11:38 40.6486 -106.7378 238° Southwest 413 475 37,000  Level Denver Center
11:39 40.5869 -106.8636 237° Southwest 411 473 37,000  Level Denver Center
11:40 40.5272 -106.9842 237° Southwest 399 459 37,000  Level Denver Center
11:41 40.4594 -107.1256 238° Southwest 394 453 37,000  Level Denver Center
11:42 40.4039 -107.2397 237° Southwest 390 449 37,000  Level Denver Center
11:43 40.3400 -107.3664 237° Southwest 377 434 37,000  Level Denver Center
11:44 40.2853 -107.4761 237° Southwest 375 432 37,000  Level Denver Center
11:45 40.2217 -107.6039 237° Southwest 376 433 37,000  Level Denver Center
11:46 40.1500 -107.7475 237° Southwest 371 427 37,000  Level Denver Center
11:47 40.0861 -107.8744 237° Southwest 375 432 37,000  Level Denver Center
11:48 40.0228 -108.0008 237° Southwest 374 430 37,000  Level Denver Center
11:49 39.9667 -108.1097 236° Southwest 376 433 37,000  Level Denver Center
11:50 39.9019 -108.2375 237° Southwest 378 435 37,000  Level Denver Center
11:51 39.8461 -108.3467 236° Southwest 376 433 37,000  Level Denver Center
11:52 39.7831 -108.4694 236° Southwest 361 415 37,000  Level Denver Center
11:53 39.7372 -108.5581 236° Southwest 369 425 37,000  Level Denver Center
11:54 39.6744 -108.6808 236° Southwest 365 420 37,000  Level Denver Center
11:55 39.6075 -108.8053 235° Southwest 362 417 37,000  Level Denver Center
11:57 39.5544 -108.9086 236° Southwest 350 403 37,000  Level Denver Center
11:58 39.4844 -109.0428 236° Southwest 352 405 37,000  Level Denver Center
11:59 39.4319 -109.1439 236° Southwest 353 406 37,000  Level Denver Center
12:00 39.3792 -109.2444 236° Southwest 354 407 37,000  Level Denver Center
12:00 39.3622 -109.2792 238° Southwest 354 407 37,000  Level Salt Lake Center
12:01 39.3172 -109.3628 235° Southwest 356 410 37,000  Level Denver Center
12:01 39.3003 -109.3975 238° Southwest 355 409 37,000  Level Salt Lake Center
12:02 39.2461 -109.4992 235° Southwest 358 412 37,000  Level Salt Lake Center
12:03 39.1908 -109.6033 236° Southwest 365 420 37,000 -240 Level Salt Lake Center
12:04 39.1444 -109.6886 235° Southwest 365 420 36,600 -600 Descending Denver Center
12:05 39.0806 -109.8072 235° Southwest 360 414 36,000 -300 Descending Denver Center
12:06 39.0256 -109.9094 235° Southwest 362 417 36,000  Level Denver Center
12:06 39.0086 -109.9453 239° Southwest 361 415 36,000  Level Salt Lake Center
12:07 38.9533 -110.0469 235° Southwest 361 415 36,000  Level Salt Lake Center
12:08 38.9053 -110.1328 234° Southwest 367 422 36,000  Level Denver Center
12:08 38.8969 -110.1508 239° Southwest 369 425 36,000  Level Salt Lake Center
12:09 38.8497 -110.2364 235° Southwest 369 425 36,000 -240 Level Denver Center
12:10 38.7814 -110.3583 234° Southwest 375 432 35,600 -480 Descending Denver Center
12:10 38.7747 -110.3783 247° West 375 432 35,400 -1,080 Descending Salt Lake Center
12:11 38.7058 -110.5028 235° Southwest 382 440 34,300 -1,020 Descending Salt Lake Center
12:12 38.6467 -110.6111 235° Southwest 386 444 33,400 -900 Descending Salt Lake Center
12:13 38.5869 -110.7208 235° Southwest 391 450 32,500 -720 Descending Salt Lake Center
12:14 38.5169 -110.8478 235° Southwest 392 451 32,000 -300 Descending Salt Lake Center
12:15 38.4494 -110.9672 234° Southwest 387 445 32,000  Level Salt Lake Center
12:17 38.3878 -111.0794 235° Southwest 386 444 32,000  Level Salt Lake Center
12:18 38.3244 -111.1878 233° Southwest 384 442 32,000  Level Salt Lake Center
12:19 38.2636 -111.2989 235° Southwest 383 441 32,000  Level Salt Lake Center
12:20 38.2017 -111.4086 234° Southwest 383 441 32,000  Level Salt Lake Center
12:21 38.1394 -111.5189 234° Southwest 384 442 32,000  Level Salt Lake Center
12:22 38.0772 -111.6300 235° Southwest 386 444 32,000  Level Salt Lake Center
12:23 38.0122 -111.7403 233° Southwest 388 447 32,000  Level Salt Lake Center
12:24 37.9372 -111.8722 234° Southwest 387 445 32,000  Level Salt Lake Center
12:25 37.8744 -111.9831 234° Southwest 388 447 32,000  Level Salt Lake Center
12:26 37.8097 -112.0942 234° Southwest 392 451 32,000  Level Salt Lake Center
12:27 37.7453 -112.2081 234° Southwest 397 457 32,000  Level Salt Lake Center
12:28 37.6789 -112.3214 234° Southwest 400 460 32,000  Level Salt Lake Center
12:29 37.6111 -112.4314 232° Southwest 398 458 32,000  Level Salt Lake Center
12:30 37.5469 -112.5353 232° Southwest 381 438 32,000  Level Salt Lake Center
12:31 37.4833 -112.6389 232° Southwest 373 429 32,000 -180 Level Salt Lake Center
12:32 37.4200 -112.7433 233° Southwest 370 426 31,700 -660 Descending Salt Lake Center
12:33 37.3553 -112.8461 232° Southwest 370 426 30,700 -1,140 Descending Salt Lake Center
12:34 37.2817 -112.9664 232° Southwest 363 418 29,400 -1,140 Descending Salt Lake Center
12:35 37.2200 -113.0644 232° Southwest 358 412 28,400 -900 Descending Salt Lake Center
12:36 37.1586 -113.1647 232° Southwest 359 413 27,600 -900 Descending Salt Lake Center
12:37 37.0972 -113.2742 235° Southwest 376 433 26,600 -960 Descending Salt Lake Center
12:38 37.0350 -113.3828 234° Southwest 383 441 25,600 -1,080 Descending Los Angeles Center
12:39 36.9625 -113.5089 234° Southwest 375 432 24,400 -780 Descending Los Angeles Center
12:40 36.9022 -113.6133 234° Southwest 372 428 24,000 -240 Descending Los Angeles Center
12:41 36.8422 -113.7172 234° Southwest 370 426 24,000  Level Los Angeles Center
12:42 36.7817 -113.8211 234° Southwest 370 426 24,000 -900 Level Los Angeles Center
12:43 36.7214 -113.9228 234° Southwest 367 422 22,200 -1,860 Descending Los Angeles Center
12:44 36.6653 -114.0214 235° Southwest 352 405 20,300 -2,100 Descending Los Angeles Center
12:46 36.5919 -114.1467 234° Southwest 340 391 17,600 -2,040 Descending Los Angeles Center
12:46 36.5442 -114.2250 233° Southwest 330 380 16,100 -1,800 Descending Los Angeles Center
12:47 36.5311 -114.2508 238° Southwest 326 375 15,600 -1,560 Descending Los Angeles Center
12:47 36.4969 -114.3072 233° Southwest 319 367 14,500 -1,560 Descending Los Angeles Center
12:48 36.4453 -114.3947 234° Southwest 314 361 12,800 -1,260 Descending Los Angeles Center
12:49 36.3947 -114.4800 234° Southwest 308 354 12,000 -720 Descending Los Angeles Center
12:51 36.3475 -114.5769 239° Southwest 279 321 11,400 -720 Descending Los Angeles Center
12:51 36.3347 -114.6125 246° West 275 316 11,000 -1,020 Descending Los Angeles Center
12:52 36.3097 -114.6586 236° Southwest 273 314 10,400 -1,020 Descending Los Angeles Center
12:52 36.2989 -114.6861 244° Southwest 274 315 10,100 -480 Descending Los Angeles Center
12:53 36.2608 -114.7683 240° Southwest 276 318 9,800 -600 Descending Los Angeles Center
12:54 36.2344 -114.8247 240° Southwest 275 316 9,100 -960 Descending Los Angeles Center
12:55 36.1961 -114.9078 240° Southwest 276 318 8,100 -480 Descending Los Angeles Center
12:56 36.1483 -115.0139 241° Southwest 249 287 8,100  Level Los Angeles Center
12:57 36.1169 -115.0747 237° Southwest 246 283 8,100 -120 Level Los Angeles Center
12:57 36.0986 -115.0836 201° Southwest 247 284 8,000 -120 Descending Los Angeles Center
12:58 36.0569 -115.1039 201° Southwest 231 266 8,000 -360 Level Los Angeles Center
12:59 36.0058 -115.1331 205° Southwest 209 241 7,400 -780 Descending Los Angeles Center
13:00 35.9639 -115.1550 203° Southwest 205 236 6,400 -900 Descending Los Angeles Center
13:01 35.9458 -115.2158 250° West 202 232 5,600 -660 Descending Los Angeles Center
13:02 36.0144 -115.1992 11° North 209 241 5,100 -1,380 Descending Los Angeles Center
13:03 36.0517 -115.1808 22° Northeast 145 167 2,800 -1,500 Descending Los Angeles Center
13:04 36.0897 -115.1581 26° Northeast 149 171 2,100 -720 Descending Los Angeles Center